Location: Anciles
(42.5833°N, 0.5167°E)
Time: 05:32:40
(UTC+00:00)

Cosmos 2344 - Pass Details

Date: 10 December 2019
Orbit: 1256 x 2986 km, 63.3° (Epoch: 18 January)

Event Time Altitude Azimuth Distance (km) Brightness Sun altitude
Rises 19:28:03 0° 323° (NW) 4,649 7.0 -32.9°
Reaches altitude 10° 19:30:45 10° 327° (NNW) 3,815 6.4 -33.4°
Maximum altitude 19:40:27 66° 50° (NE) 2,126 4.3 -35.2°
Enters shadow 19:40:45 66° 58° (ENE) 2,143 4.3 -35.2°
